[Iaude] MPEC H81: 2024 HO1 [a=1.61,e=0.59,i=5.5,H=23.9]

mpec at cfa.harvard.edu mpec at cfa.harvard.edu
Sun Apr 28 17:47:36 EDT 2024


M.P.E.C. 2024-H81                                Issued 2024 April 28, 21:46 UT

     The Minor Planet Electronic Circulars contain information on unusual
         minor planets, routine data on comets and natural satellites,
         and occasional editorial announcements.  They are published
    on behalf of Division F of the International Astronomical Union by the
          Minor Planet Center, Smithsonian Astrophysical Observatory,
                          Cambridge, MA 02138, U.S.A.
			  
             Prepared using the Tamkin Foundation Computer Network

                              MPC at CFA.HARVARD.EDU
            URL https://www.minorplanetcenter.net/    ISSN 1523-6714

                                    2024 HO1                                    


Observations:
     K24H01O*1C2024 04 26.40543815 14 18.679+36 37 38.21         19.57GVEH081G96
     K24H01O 1C2024 04 26.41566015 14 10.637+36 33 41.62         19.45GVEH081G96
     K24H01O 1C2024 04 26.42076715 14 06.745+36 31 45.08         19.52GVEH081G96
     K24H01O KC2024 04 26.48383315 13 18.743+36 07 36.73         19.77GVEH081I52
     K24H01O KC2024 04 26.48438015 13 18.347+36 07 23.95         19.35GVEH081I52
     K24H01O KC2024 04 26.48492915 13 17.994+36 07 11.32         19.58GVEH081I52
     K24H01O KC2024 04 26.48548715 13 17.562+36 06 59.04         19.71GVEH081I52
     K24H01O IC2024 04 26.90371515 08 49.28 +33 33 44.6          20.4 GVEH081L01
     K24H01O IC2024 04 26.90569315 08 47.96 +33 33 01.6          20.2 GVEH081L01
     K24H01O KC2024 04 26.90701 15 08 47.08 +33 32 32.7          19.2 GqEH081C75
     K24H01O KC2024 04 26.90705 15 08 47.06 +33 32 31.9                qEH081C75
     K24H01O KC2024 04 26.90712 15 08 47.01 +33 32 30.4                qEH081C75
     K24H01O KC2024 04 26.90766915 08 46.65 +33 32 20.9          20.1 GVEH081L01
     K24H01O KC2024 04 26.90970915 08 45.31 +33 31 37.7          19.8 GVEH081L01
     K24H01O KC2024 04 26.91194115 08 43.83 +33 30 50.5          20.0 GVEH081L01
     K24H01O KB2024 04 27.21227 15 05 44.563+31 46 57.40         19.9 GVEH081734
     K24H01O KB2024 04 27.21693 15 05 41.683+31 45 23.22         19.7 GVEH081734
     K24H01O KB2024 04 27.72885 15 01 06.12 +28 59 06.6                VEH081O46
     K24H01O KB2024 04 27.74686 15 00 56.35 +28 53 30.5          19.5 GVEH081O46
     K24H01O KB2024 04 27.78027 15 00 38.17 +28 43 04.8                VEH081O46
     K24H01O KB2024 04 27.86514715 00 03.98 +28 16 10.1          20.0 GXEH081958
     K24H01O KB2024 04 27.87187315 00 00.67 +28 14 06.8          19.2 GXEH081958
     K24H01O KB2024 04 27.87319414 59 59.210+28 14 00.46         19.9 GXEH081L34
     K24H01O KB2024 04 27.87804614 59 57.60 +28 12 14.5          19.9 GXEH081958
     K24H01O KB2024 04 27.90097014 59 44.983+28 05 35.99         19.6 GXEH081L34
     K24H01O KC2024 04 27.94662814 59 21.29 +27 51 26.4          19.9 GVEH081K62
     K24H01O KC2024 04 27.94790814 59 20.60 +27 51 03.5          20.1 GVEH081K62
     K24H01O KC2024 04 27.94918714 59 19.98 +27 50 40.1          20.0 GVEH081K62
     K24H01O KC2024 04 27.95046714 59 19.33 +27 50 17.0          20.2 GVEH081K62
     K24H01O KB2024 04 28.02092014 58 43.874+27 29 30.98         19.3 GXEH081L34
     K24H01O KC2024 04 28.12816714 57 53.01 +26 57 26.3          20.6 GXEH081I93
     K24H01O KC2024 04 28.13002614 57 52.06 +26 56 53.1          19.9 GXEH081I93
     K24H01O KC2024 04 28.13187814 57 51.19 +26 56 20.5          20.1 GXEH081I93

Observer details:
734 Farpoint Observatory, Eskridge.  Observers D. Cromer, G. Hug, D. Goodin,
    R. Valentine, P. Lessig.  Measurer G. Hug.  0.69-m f/3.54 reflector + CMO.
958 Observatoire de Dax.  Observer P. Dupouy.  0.50-m f/4.5 Reflector + CMO.
C75 Whitestar Observatory, Borgobello.  Observer T. Gregor.  Measurers V.
    Gonano, T. Gregor.  0.25-m f/5.7 Schmidt-Cassegrain + CCD.
G96 Mt. Lemmon Survey.  Observer T. Beuden.  Measurers T. Beuden, V. F.
    Carvajal, D. Fay, J. B. Fazekas, D. C. Fuls, A. R. Gibbs, A. D. Grauer, H.
    Groeller, J. K. Hogan, R. A. Kowalski, S. M. Larson, G. J. Leonard, D.
    Rankin, R. L. Seaman, F. C. Shelly, K. W. Wierzchos.  1.5-m reflector +
    10K CCD.
I52 Steward Observatory, Mt. Lemmon Station.  Observer R. A. Kowalski.
    Measurers T. Beuden, V. F. Carvajal, D. Fay, J. B. Fazekas, D. C. Fuls, A.
    R. Gibbs, A. D. Grauer, H. Groeller, J. K. Hogan, R. A. Kowalski, S. M.
    Larson, G. J. Leonard, D. Rankin, R. L. Seaman, F. C. Shelly, K. W.
    Wierzchos.  1.0-m prime focus + CCD.
I93 St Pardon de Conques.  Observer F. Losse.  0.40-m f/3.7 reflector + CCD.
K62 Teplice Observatory.  Observer Z. Moravec.  0.60-m f/3.3 reflector + CMOS.
L01 Visnjan Observatory, Tican.  Observer K. Korlevic.  1.0-m f/2.9 reflector
    + CCD.
L34 Galhassin Robotic Telescope, Isnello.  Observer A. Nastasi.  0.40-m f/3.8
    400mm Reflector + CMO.
O46 Daocheng Glacier Observatory.  Observer Z. Wang.  0.25-m f/8 reflector +
    CMO.

Orbital elements:
2024 HO1                                                 Earth MOID = 0.0402 AU
Epoch 2024 Mar. 31.0 TT = JDT 2460400.5                 Veres                   
M  13.82835              (2000.0)            P               Q                  
n   0.48243793     Peri.   58.25972     -0.59116527     -0.80153730             
a   1.6100589      Node    68.24328     +0.70343807     -0.56684531             
e   0.5867448      Incl.    5.54760     +0.39458649     -0.19032695             
P   2.04           H   23.92          G   0.15           U   8                  
Residuals in seconds of arc
240426 G96  0.0   0.4+    240426 L01  0.3-  0.3+    240427 958  1.6+  0.5-
240426 G96 (1.0-  1.0-)   240426 L01  0.2-  0.2+    240427 L34  0.2+  0.7-
240426 G96  0.2-  0.1-    240426 L01  0.2-  0.1+    240427 K62  0.2+  0.1-
240426 I52  0.3-  0.0     240427 734  0.0   0.2+    240427 K62  0.4-  0.1+
240426 I52  0.2-  0.3-    240427 734  0.3-  0.1+    240427 K62  0.1-  0.2-
240426 I52  0.5+  0.3-    240427 O46  0.1+  0.6-    240427 K62  0.2-  0.1-
240426 I52  0.3+  0.2+    240427 O46  0.6+  0.5+    240428 L34  0.3-  0.0
240426 L01  0.3-  0.5+    240427 O46  1.0-  0.5-    240428 I93  0.1+  0.2+
240426 L01  0.4-  0.8-    240427 958  0.4+  1.1+    240428 I93  0.8-  0.0
240426 C75  0.5-  0.1+    240427 958  1.2+  0.1-    240428 I93  0.6-  0.2+
240426 C75  0.5-  0.2+    240427 L34  0.2+  0.3-

Ephemeris:
2024 HO1                 a,e,i = 1.61, 0.59, 6                   q = 0.6654
Date    TT    R. A. (2000) Decl.     Delta      r    Elong.  Phase     V
2024 03 29    01 40 16.7 +27 36 28   0.2545  0.7865    29.3   141.5    27.5
...
2024 04 13    01 07 17.9 +46 56 56   0.1086  0.9197    38.1   137.7    25.5
...
2024 04 21    19 28 14.4 +72 50 17   0.05951 0.9970    80.7    95.9    21.2
...
2024 04 27    15 07 46.6 +33 00 39   0.07212 1.0558   131.7    45.4    20.1
2024 04 28    14 58 55.4 +27 36 22   0.07834 1.0657   137.3    39.8    20.1
2024 04 29    14 52 04.7 +22 59 26   0.08524 1.0755   142.0    35.2    20.2
...
2024 05 05    14 30 37.1 +06 16 39   0.1351  1.1342   157.0    20.3    20.9
...
2024 05 13    14 20 32.9 -03 05 21   0.2131  1.2116   158.9    17.5    21.9
...
2024 05 28    14 17 46.7 -10 14 37   0.3797  1.3520   148.6    23.0    23.6

M. P. C. Staff               (C) Copyright 2024 MPC           M.P.E.C. 2024-H81





More information about the Iaude mailing list